Location: Devore Heights
(34.2372°N, 117.4156°W)
Time: 08:18:36
(UTC+00:00)

Altair - Pass Details

Date: 17 September 2024
Orbit: 1501 x 1682 km, 47.2° (Epoch: 07 October)

Event Time Altitude Azimuth Distance (km) Brightness Sun altitude
Rises 10:40:43 0° 258° (WSW) 4,839 - -35.0°
Reaches altitude 10° 10:43:57 10° 263° (W) 3,876 - -34.4°
Exits shadow 10:51:27 46° 303° (WNW) 2,137 7.9 -33.1°
Maximum altitude 10:53:36 52° 338° (NNW) 2,008 8.0 -32.7°
Drops below altitude 10° 11:03:29 10° 53° (NE) 3,948 10.5 -30.9°
Sets 11:06:49 0° 59° (ENE) 4,934 11.3 -30.3°
